When you browse on this site, cookies collect data to enhance your experience and personalize the content and advertising you see.
Visit our Privacy Policy to learn more. By continuing to use the site, you agree to this use of cookies and data.
  • în România
  • Lista ţărilor
  • Pe 7 zile
  • Temperatura apei
  • Hartă satelitară
  • Meteo pe hartă
  • Widget-uri
  • user-avatar
    Intrare

    Meteo pe oră la Dromore

    Astăzi, 13 Decembrie, Joi

    Timp Temperatura Precipitaţii Vânt Presiune Umiditate
    00:00 +3°C° 0 mm 11 m/s 747 mmHg 84%
    01:00 +3°C° 0.3 mm 12 m/s 746 mmHg 83%
    02:00 +3°C° 0.3 mm 12 m/s 746 mmHg 83%
    03:00 +3°C° 0.3 mm 12 m/s 746 mmHg 83%
    04:00 +3°C° 0.3 mm 12 m/s 746 mmHg 83%
    05:00 +2°C° 0.3 mm 12 m/s 746 mmHg 82%
    06:00 +2°C° 0.3 mm 11 m/s 746 mmHg 82%
    07:00 +2°C° 0.3 mm 11 m/s 747 mmHg 82%
    08:00 +2°C° 0.3 mm 11 m/s 747 mmHg 81%
    09:00 +2°C° 0.3 mm 11 m/s 747 mmHg 81%
    10:00 +2°C° 0.1 mm 11 m/s 748 mmHg 81%
    11:00 +2°C° 0.1 mm 10 m/s 748 mmHg 80%
    12:00 +2°C° 0.1 mm 10 m/s 749 mmHg 79%
    13:00 +2°C° 0.1 mm 10 m/s 749 mmHg 80%
    14:00 +2°C° 0.1 mm 9 m/s 749 mmHg 80%
    15:00 +2°C° 0.1 mm 9 m/s 750 mmHg 81%
    16:00 +2°C° 0.1 mm 9 m/s 750 mmHg 81%
    17:00 +2°C° 0.1 mm 9 m/s 751 mmHg 81%
    18:00 +2°C° 0.1 mm 8 m/s 751 mmHg 82%
    19:00 +2°C° 0.1 mm 8 m/s 752 mmHg 81%
    20:00 +2°C° 0.1 mm 8 m/s 752 mmHg 81%
    21:00 +2°C° 0.1 mm 8 m/s 752 mmHg 81%
    22:00 +2°C° 0 mm 8 m/s 753 mmHg 81%
    23:00 +3°C° 0 mm 7 m/s 753 mmHg 81%

    Mâine, 14 Decembrie, Vineri

    Timp Temperatura Precipitaţii Vânt Presiune Umiditate
    00:00 +3°C° 0 mm 7 m/s 753 mmHg 80%
    01:00 +3°C° 0 mm 7 m/s 753 mmHg 81%
    02:00 +2°C° 0 mm 7 m/s 753 mmHg 81%
    03:00 +2°C° 0 mm 7 m/s 753 mmHg 81%
    04:00 +2°C° 0 mm 7 m/s 753 mmHg 82%
    05:00 +3°C° 0 mm 7 m/s 753 mmHg 83%
    06:00 +3°C° 0 mm 7 m/s 753 mmHg 83%
    07:00 +2°C° 0 mm 8 m/s 753 mmHg 83%
    08:00 +2°C° 0 mm 8 m/s 753 mmHg 83%
    09:00 +2°C° 0 mm 9 m/s 753 mmHg 83%
    10:00 +2°C° 0 mm 9 m/s 753 mmHg 83%
    11:00 +2°C° 0 mm 9 m/s 753 mmHg 82%
    12:00 +2°C° 0 mm 9 m/s 753 mmHg 81%
    13:00 +3°C° 0.1 mm 9 m/s 752 mmHg 82%
    14:00 +3°C° 0.1 mm 10 m/s 752 mmHg 83%
    15:00 +3°C° 0.1 mm 10 m/s 751 mmHg 84%
    16:00 +3°C° 0.2 mm 10 m/s 751 mmHg 85%
    17:00 +3°C° 0.2 mm 10 m/s 751 mmHg 85%
    18:00 +3°C° 0.2 mm 10 m/s 750 mmHg 86%
    19:00 +3°C° 0.4 mm 10 m/s 750 mmHg 86%
    20:00 +3°C° 0.4 mm 11 m/s 749 mmHg 87%
    21:00 +3°C° 0.4 mm 11 m/s 749 mmHg 87%
    22:00 +3°C° 0.7 mm 11 m/s 748 mmHg 87%
    23:00 +3°C° 0.7 mm 11 m/s 747 mmHg 87%

    Poimâine, 15 Decembrie, Sâmbătă

    Timp Temperatura Precipitaţii Vânt Presiune Umiditate
    00:00 +3°C° 0.7 mm 12 m/s 747 mmHg 88%
    01:00 +3°C° 0.8 mm 12 m/s 746 mmHg 88%
    02:00 +3°C° 0.8 mm 12 m/s 745 mmHg 88%
    03:00 +3°C° 0.8 mm 12 m/s 744 mmHg 88%
    04:00 +3°C° 1.2 mm 12 m/s 743 mmHg 88%
    05:00 +3°C° 1.2 mm 12 m/s 742 mmHg 88%
    06:00 +3°C° 1.2 mm 13 m/s 741 mmHg 88%
    07:00 +4°C° 0.4 mm 13 m/s 740 mmHg 88%
    08:00 +4°C° 0.4 mm 13 m/s 740 mmHg 89%
    09:00 +4°C° 0.4 mm 13 m/s 739 mmHg 89%
    10:00 +5°C° 0.8 mm 13 m/s 738 mmHg 90%
    11:00 +5°C° 0.8 mm 12 m/s 737 mmHg 90%
    12:00 +7°C° 0.8 mm 12 m/s 736 mmHg 90%
    13:00 +7°C° 1.3 mm 13 m/s 734 mmHg 91%
    14:00 +7°C° 1.3 mm 13 m/s 733 mmHg 91%
    15:00 +5°C° 1.3 mm 13 m/s 731 mmHg 91%
    16:00 +7°C° 3.4 mm 13 m/s 729 mmHg 92%
    17:00 +7°C° 3.4 mm 13 m/s 728 mmHg 92%
    18:00 +7°C° 3.4 mm 12 m/s 726 mmHg 93%
    19:00 +7°C° 2.2 mm 12 m/s 726 mmHg 91%
    20:00 +6°C° 2.2 mm 11 m/s 726 mmHg 89%
    21:00 +4°C° 2.2 mm 11 m/s 726 mmHg 86%
    22:00 +4°C° 1.3 mm 12 m/s 727 mmHg 84%
    23:00 +3°C° 1.3 mm 12 m/s 729 mmHg 81%

    16 Decembrie, Duminică

    Timp Temperatura Precipitaţii Vânt Presiune Umiditate
    00:00 +1°C° 1.3 mm 13 m/s 730 mmHg 78%
    01:00 +2°C° 0.2 mm 12 m/s 732 mmHg 79%
    02:00 +2°C° 0.2 mm 11 m/s 733 mmHg 79%
    03:00 +2°C° 0.2 mm 9 m/s 735 mmHg 80%
    04:00 +2°C° 0 mm 9 m/s 736 mmHg 81%
    05:00 +1°C° 0 mm 8 m/s 736 mmHg 82%
    06:00 +1°C° 0 mm 8 m/s 737 mmHg 83%
    07:00 +1°C° 0 mm 8 m/s 738 mmHg 85%
    08:00 0°C° 0 mm 7 m/s 738 mmHg 86%
    09:00 +1°C° 0 mm 6 m/s 739 mmHg 88%
    10:00 +2°C° 0 mm 6 m/s 739 mmHg 86%
    11:00 +2°C° 0 mm 6 m/s 739 mmHg 84%
    12:00 +3°C° 0 mm 7 m/s 740 mmHg 83%
    13:00 +3°C° 0 mm 6 m/s 740 mmHg 83%
    14:00 +3°C° 0 mm 6 m/s 740 mmHg 84%
    15:00 +3°C° 0 mm 5 m/s 741 mmHg 84%
    16:00 +2°C° 0 mm 5 m/s 741 mmHg 86%
    17:00 +2°C° 0 mm 5 m/s 742 mmHg 87%
    18:00 +2°C° 0 mm 5 m/s 742 mmHg 88%
    19:00 +2°C° 0 mm 5 m/s 742 mmHg 89%
    20:00 +1°C° 0 mm 5 m/s 743 mmHg 89%
    21:00 +1°C° 0 mm 5 m/s 743 mmHg 90%
    22:00 +1°C° 0 mm 5 m/s 744 mmHg 91%
    23:00 +1°C° 0 mm 4 m/s 744 mmHg 91%

    17 Decembrie, Luni

    Timp Temperatura Precipitaţii Vânt Presiune Umiditate
    00:00 +1°C° 0 mm 4 m/s 744 mmHg 92%
    01:00 0°C° 0 mm 4 m/s 745 mmHg 93%
    02:00 0°C° 0 mm 4 m/s 745 mmHg 93%
    03:00 0°C° 0 mm 4 m/s 745 mmHg 94%
    04:00 0°C° 0 mm 4 m/s 746 mmHg 94%
    05:00 +1°C° 0 mm 3 m/s 746 mmHg 94%
    06:00 0°C° 0 mm 3 m/s 746 mmHg 94%
    07:00 +1°C° 0 mm 3 m/s 746 mmHg 94%
    08:00 +1°C° 0 mm 3 m/s 747 mmHg 93%
    09:00 +1°C° 0 mm 3 m/s 747 mmHg 93%
    10:00 +1°C° 0 mm 4 m/s 747 mmHg 89%
    11:00 +2°C° 0 mm 5 m/s 747 mmHg 86%
    12:00 +3°C° 0 mm 6 m/s 747 mmHg 82%
    13:00 +4°C° 0 mm 7 m/s 746 mmHg 82%
    14:00 +4°C° 0 mm 7 m/s 746 mmHg 82%
    15:00 +5°C° 0 mm 8 m/s 745 mmHg 82%
    16:00 +5°C° 0 mm 9 m/s 745 mmHg 82%
    17:00 +6°C° 0 mm 10 m/s 744 mmHg 83%
    18:00 +6°C° 0 mm 11 m/s 743 mmHg 83%
    19:00 +6°C° 0.1 mm 11 m/s 743 mmHg 84%
    20:00 +7°C° 0.1 mm 11 m/s 742 mmHg 84%
    21:00 +7°C° 0.1 mm 12 m/s 742 mmHg 84%
    22:00 +8°C° 0.1 mm 12 m/s 741 mmHg 84%
    23:00 +8°C° 0.1 mm 13 m/s 740 mmHg 84%

    18 Decembrie, Marţi

    Timp Temperatura Precipitaţii Vânt Presiune Umiditate
    00:00 +8°C° 0.1 mm 13 m/s 739 mmHg 84%
    01:00 +8°C° 0.5 mm 14 m/s 738 mmHg 84%
    02:00 +8°C° 0.5 mm 14 m/s 737 mmHg 84%
    03:00 +9°C° 0.5 mm 14 m/s 736 mmHg 84%
    04:00 +8°C° 1.7 mm 13 m/s 736 mmHg 86%
    05:00 +8°C° 1.7 mm 12 m/s 735 mmHg 87%
    06:00 +7°C° 1.7 mm 11 m/s 735 mmHg 89%
    07:00 +7°C° 0.5 mm 10 m/s 735 mmHg 89%
    08:00 +7°C° 0.5 mm 9 m/s 736 mmHg 89%
    09:00 +6°C° 0.5 mm 7 m/s 736 mmHg 88%
    10:00 +6°C° 0.2 mm 7 m/s 736 mmHg 89%
    11:00 +7°C° 0.2 mm 6 m/s 736 mmHg 89%
    12:00 +7°C° 0.2 mm 5 m/s 736 mmHg 89%
    13:00 +7°C° 0 mm 5 m/s 736 mmHg 89%
    14:00 +7°C° 0 mm 4 m/s 736 mmHg 89%
    15:00 +6°C° 0 mm 4 m/s 737 mmHg 89%
    16:00 +7°C° 0 mm 3 m/s 737 mmHg 90%
    17:00 +5°C° 0 mm 3 m/s 737 mmHg 91%
    18:00 +6°C° 0 mm 2 m/s 737 mmHg 92%
    19:00 +5°C° 0 mm 2 m/s 737 mmHg 92%
    20:00 +5°C° 0 mm 2 m/s 737 mmHg 92%
    21:00 +5°C° 0 mm 2 m/s 737 mmHg 92%
    22:00 +5°C° 0 mm 2 m/s 737 mmHg 92%
    23:00 +5°C° 0 mm 2 m/s 737 mmHg 93%
    Arată mai mult